User: anonymous   Login
Location: Gajan
(43.0218°N, 1.1244°E)
Time: 23:57:18
(UTC+00:00)
Language:

Cosmos 389 Rocket - Orbit

View from above orbital plane
View from above orbital plane
View from above satellite
View from above satellite

Ground track
Ground track

The orbit data is extracted from the following two-line orbital elements,

1 04814U 70113B   21169.52284020  .00001937  00000-0  52859-4 0  9994
2 04814  81.1423  76.7252 0024866  89.4691 270.9398 15.36566146759327
Epoch (UTC): 18 June 2021 12:32:53
Eccentricity: 0.0024866
inclination: 81.1423°
perigee height: 439 km
apogee height: 473 km
right ascension of ascending node: 76.7252°
argument of perigee: 89.4691°
revolutions per day: 15.36566146
mean anomaly at epoch: 270.9398°
orbit number at epoch: 75932

The dashed part of the orbit path shows where the satellite is in the earth's shadow,  

DLR